This demonstration page uses our WeatherBlox Daily Observations layout. Learn more.

38.88101, -77.10428

Hourly Observations for March 14, 2020

Temp ( °F °C ) Dew Point ( °F °C ) Humidity (%) Winds ( mph kmh ) Pressure ( in mb ) Visibility ( mi km ) Precip ( " mm )
12:52 am 00:52 Cloudy 57 13.9 17 -8.3 21 21 NW 14 22 30.21 1023 10 16.0934 0 0
1:52 am 01:52 Cloudy 55 12.8 18 -7.8 23 23 NNW 9 15 30.24 1024 10 16.0934 0 0
2:52 am 02:52 Clear 53 11.7 20 -6.7 27 27 NW 16 26 30.27 1025 10 16.0934 0 0
3:52 am 03:52 Mostly Clear 50 10 19 -7.2 29 29 NNW 8 13 30.29 1026 10 16.0934 0 0
4:52 am 04:52 Clear 49 9.4 21 -6.1 33 33 NW 15 24 30.32 1027 10 16.0934 0 0
5:52 am 05:52 Mostly Clear 49 9.4 22 -5.6 35 35 NW 13 20 30.35 1028 10 16.0934 0 0
6:52 am 06:52 Mostly Cloudy 47 8.3 23 -5 39 39 NNW 9 15 30.37 1028 10 16.0934 0 0
7:52 am 07:52 Mostly Cloudy 47 8.3 24 -4.4 41 41 NNW 7 11 30.39 1029 10 16.0934 0 0
8:52 am 08:52 Mostly Cloudy 49 9.4 23 -5 36 36 NNW 12 19 30.42 1030 10 16.0934 0 0
9:52 am 09:52 Mostly Cloudy 51 10.6 24 -4.4 35 35 NNW 13 20 30.42 1030 10 16.0934 0 0
10:52 am 10:52 Mostly Cloudy 52 11.1 24 -4.4 34 34 NW 13 20 30.42 1030 10 16.0934 0 0
11:52 am 11:52 Mostly Cloudy 54 12.2 22 -5.6 29 29 NW 8 13 30.42 1030 10 16.0934 0 0
12:52 pm 12:52 Mostly Cloudy 56 13.3 22 -5.6 27 27 NNE 7 11 30.4 1030 10 16.0934 0 0
1:52 pm 13:52 Sunny 56 13.3 22 -5.6 27 27 VRB 5 7 30.39 1029 10 16.0934 0 0
2:52 pm 14:52 Mostly Cloudy 57 13.9 20 -6.7 24 24 NNW 7 11 30.36 1028 10 16.0934 0 0
3:52 pm 15:52 Cloudy 58 14.4 20 -6.7 23 23 WNW 7 11 30.35 1028 10 16.0934 0 0
4:52 pm 16:52 Cloudy 57 13.9 19 -7.2 23 23 NNW 13 20 30.36 1028 10 16.0934 0 0
5:52 pm 17:52 Cloudy 56 13.3 20 -6.7 24 24 N 12 19 30.37 1028 10 16.0934 0 0
6:52 pm 18:52 Cloudy 54 12.2 19 -7.2 25 25 N 8 13 30.36 1028 10 16.0934 0 0
7:52 pm 19:52 Cloudy 51 10.6 28 -2.2 41 41 NNW 21 33 30.39 1029 10 16.0934 0 0
8:52 pm 20:52 Cloudy with Light Rain 46 7.8 37 2.8 71 71 N 10 17 30.36 1028 10 16.0934 0.02 0.508
9:52 pm 21:52 Cloudy with Light Rain 46 7.8 38 3.3 73 73 N 14 22 30.37 1029 10 16.0934 0.02 0.508
10:52 pm 22:52 Cloudy with Light Rain 45 7.2 40 4.4 83 83 N 13 20 30.39 1029 10 16.0934 0.03 0.762
11:52 pm 23:52 Cloudy with Light Rain 44 6.7 39 3.9 83 83 NNE 14 22 30.4 1030 9 14.48406 0.02 0.508

Powered by AerisWeather